Jacksonville, FL

2:00 AM EDT on October 01, 2016 (GMT -0400)
Craig Municipal

Weather History for KCRG - March, 2014

Change the Weather History Date:

Sunday, March 30, 2014

  Actual Average Record
Temperature  
Mean Temperature 63 °F -  
Max Temperature 73 °F 73 °F 84 °F (2012)
Min Temperature 53 °F 53 °F 42 °F (2015)
Degree Days  
Heating Degree Days 2    
Growing Degree Days 13 (Base 50)    
Moisture  
Dew Point 42 °F    
Average Humidity 50    
Maximum Humidity 81    
Minimum Humidity 25    
Precipitation  
Precipitation 0.00 in - - ()
Sea Level Pressure  
Sea Level Pressure 29.99 in    
Wind  
Wind Speed 12 mph (NW)    
Max Wind Speed 17 mph    
Max Gust Speed 29 mph    
Visibility 10 miles    
Events      
Averages and records for this station are not official NWS values.
T = Trace of Precipitation, MM = Missing Value Source: NWS Daily Summary

Daily Weather History Graph

Daily Weather History Graph

Search for Another Location

Airport or City:

Trip Planner

Search our weather history database for the weather conditions in past years. The results will help you decide how hot, cold, wet, or windy it might be!

Date:

Astronomy

Mar. 30, 2014 Rise Set
Actual Time 7:17 AM EDT 7:43 PM EDT
Civil Twilight 6:53 AM EDT 8:07 PM EDT
Nautical Twilight 6:25 AM EDT 8:36 PM EDT
Astronomical Twilight 5:56 AM EDT 9:04 PM EDT
Moon 7:02 AM EDT (3/30) 7:52 PM EDT (3/30)
Length of Visible Light 13h 14m
Length of Day
12h 26m
Waning Crescent, 0% of the Moon is Illuminated
Mar 30
Waning Crescent
Mar 30
New
Apr 7
First Quarter
Apr 15
Full
Apr 22
Last Quarter

Hourly Weather History & Observations

Time (EDT) Temp. Dew Point Humidity Pressure Visibility Wind Dir Wind Speed Gust Speed Precip Events Conditions
12:53 AM 66.0 °F 60.1 °F 81% 29.90 in 10.0 mi West 10.4 mph 18.4 mph N/A   Clear
1:53 AM 64.9 °F 54.0 °F 68% 29.91 in 10.0 mi WNW 13.8 mph 19.6 mph N/A   Clear
2:21 AM 64.0 °F 51.1 °F 63% 29.91 in 10.0 mi NW 17.3 mph 25.3 mph N/A   Mostly Cloudy
2:28 AM 64.0 °F 48.9 °F 58% 29.92 in 10.0 mi NNW 15.0 mph 25.3 mph N/A   Mostly Cloudy
2:53 AM 62.1 °F 46.9 °F 58% 29.92 in 10.0 mi NW 16.1 mph 25.3 mph N/A   Partly Cloudy
3:53 AM 59.0 °F 45.0 °F 60% 29.92 in 10.0 mi NW 16.1 mph 21.9 mph N/A   Clear
4:53 AM 57.0 °F 44.1 °F 62% 29.94 in 10.0 mi NW 10.4 mph 20.7 mph N/A   Clear
5:53 AM 55.0 °F 42.1 °F 62% 29.96 in 10.0 mi NW 10.4 mph 20.7 mph N/A   Clear
6:53 AM 54.0 °F 41.0 °F 62% 29.98 in 10.0 mi WNW 10.4 mph - N/A   Clear
7:53 AM 53.1 °F 41.0 °F 64% 30.01 in 10.0 mi NW 13.8 mph - N/A   Clear
8:53 AM 55.0 °F 41.0 °F 59% 30.04 in 10.0 mi WNW 15.0 mph 21.9 mph N/A   Clear
9:53 AM 57.0 °F 39.9 °F 53% 30.05 in 10.0 mi WNW 15.0 mph 21.9 mph N/A   Clear
10:53 AM 59.0 °F 39.9 °F 49% 30.06 in 10.0 mi West 15.0 mph - N/A   Clear
11:53 AM 63.0 °F 42.1 °F 46% 30.05 in 10.0 mi NW 12.7 mph 19.6 mph N/A   Clear
12:53 PM 64.9 °F 41.0 °F 42% 30.04 in 10.0 mi NW 12.7 mph 23.0 mph N/A   Clear
1:53 PM 66.9 °F 39.9 °F 37% 30.02 in 10.0 mi WNW 15.0 mph 21.9 mph N/A   Clear
2:53 PM 69.1 °F 37.0 °F 31% 29.99 in 10.0 mi WNW 12.7 mph 24.2 mph N/A   Clear
3:53 PM 72.0 °F 37.0 °F 28% 29.96 in 10.0 mi NW 13.8 mph - N/A   Clear
4:53 PM 73.0 °F 36.0 °F 26% 29.97 in 10.0 mi WNW 13.8 mph 28.8 mph N/A   Clear
5:53 PM 73.0 °F 35.1 °F 25% 29.98 in 10.0 mi WNW 13.8 mph 23.0 mph N/A   Clear
6:53 PM 71.1 °F 33.1 °F 25% 29.99 in 10.0 mi NW 13.8 mph 23.0 mph N/A   Clear
7:53 PM 66.9 °F 34.0 °F 30% 30.02 in 10.0 mi NW 11.5 mph - N/A   Clear
8:53 PM 63.0 °F 37.0 °F 38% 30.05 in 10.0 mi NW 6.9 mph - N/A   Clear
9:53 PM 61.0 °F 37.9 °F 42% 30.07 in 10.0 mi West 4.6 mph - N/A   Clear
10:53 PM 55.9 °F 41.0 °F 57% 30.08 in 10.0 mi Calm Calm - N/A   Clear
11:53 PM 53.1 °F 44.1 °F 71% 30.09 in 10.0 mi Calm Calm - N/A   Clear